Location: Ravensburg
(47.7866°N, 9.6124°E)
Time: 02:34:30
(UTC+01:00)

ISS - Visible Passes

Search period start: 08 December 2021 00:00
Search period end: 18 December 2021 00:00
Orbit: 417 x 422 km, 51.6° (Epoch: 07 December)

Date Brightness Start Highest point End Pass type
(mag) Time Alt. Az. Time Alt. Az. Time Alt. Az.
08 Dec -0.9 18:04:27 10° W 18:06:56 19° SW 18:09:24 10° S visible
09 Dec -1.5 17:16:43 10° W 17:19:42 28° SW 17:22:39 10° SSE visible
11 Dec -0.2 17:19:53 10° WSW 17:21:19 12° SW 17:22:45 10° SSW visible
